Location: Beetenbrück
(52.8113°N, 9.5946°E)
Time: 17:28:39
(UTC+00:00)

NOSS 3-4 (A) - Pass Details

Date: 14 April 2026
Orbit: 769 x 1442 km, 63.4° (Epoch: 10 January)

Event Time Altitude Azimuth Distance (km) Brightness Sun altitude
Rises 21:41:38 0° 241° (WSW) 3,261 6.3 -24.0°
Reaches altitude 10° 21:43:59 10° 246° (WSW) 2,368 5.5 -24.1°
Maximum altitude 21:49:18 59° 326° (NW) 987 3.8 -24.5°
Drops below altitude 10° 21:55:23 10° 46° (NE) 2,688 6.0 -24.8°
Sets 21:58:12 0° 50° (NE) 3,740 6.8 -25.0°
